Brooksville, FL

2:45 PM EST on December 14, 2017 (GMT -0500)
Hernando County

Weather History for KBKV - January, 2013

Change the Weather History Date:

Thursday, January 10, 2013

  Actual Average Record
Temperature  
Mean Temperature 76 °F -  
Max Temperature 84 °F 67 °F 84 °F (2013)
Min Temperature 69 °F 42 °F 19 °F (2001)
Cooling Degree Days 12    
Growing Degree Days 26 (Base 50)    
Moisture  
Dew Point 65 °F    
Average Humidity 78    
Maximum Humidity 94    
Minimum Humidity 41    
Precipitation  
Precipitation 0.00 in - - ()
Sea Level Pressure  
Sea Level Pressure 30.29 in    
Wind  
Wind Speed 9 mph (ESE)    
Max Wind Speed 17 mph    
Max Gust Speed 23 mph    
Visibility 10 miles    
Events      
Averages and records for this station are not official NWS values.
T = Trace of Precipitation, MM = Missing Value Source: NWS Daily Summary

Daily Weather History Graph

Daily Weather History Graph

Search for Another Location

Airport or City:

Trip Planner

Search our weather history database for the weather conditions in past years. The results will help you decide how hot, cold, wet, or windy it might be!

Date:

Astronomy

Jan. 10, 2013 Rise Set
Actual Time 7:23 AM EST 5:51 PM EST
Civil Twilight 6:58 AM EST 6:17 PM EST
Nautical Twilight 6:28 AM EST 6:46 PM EST
Astronomical Twilight 6:00 AM EST 7:14 PM EST
Moon 6:02 AM EST (1/10) 4:56 PM EST (1/10)
Length of Visible Light 11h 19m
Length of Day
10h 28m
Waning Crescent, 2% of the Moon is Illuminated
Jan 10
Waning Crescent
Jan 11
New
Jan 18
First Quarter
Jan 26
Full
Feb 3
Last Quarter

Hourly Weather History & Observations

Time (EST) Temp. Heat Index Dew Point Humidity Pressure Visibility Wind Dir Wind Speed Gust Speed Precip Events Conditions
12:53 AM 72.0 °F - 69.1 °F 91% 30.32 in 10.0 mi ESE 9.2 mph - N/A   Overcast
1:53 AM 72.0 °F - 69.1 °F 91% 30.31 in 10.0 mi ESE 10.4 mph - N/A   Overcast
2:53 AM 72.0 °F - 69.1 °F 91% 30.30 in 10.0 mi East 6.9 mph - N/A   Overcast
3:05 AM 71.6 °F - 69.8 °F 94% 30.31 in 10.0 mi East 8.1 mph - N/A   Overcast
3:51 AM 71.6 °F - 69.8 °F 94% 30.30 in 10.0 mi ESE 9.2 mph - N/A   Overcast
3:53 AM 71.1 °F - 69.1 °F 93% 30.29 in 10.0 mi ESE 10.4 mph - N/A   Overcast
4:11 AM 69.8 °F - 68.0 °F 94% 30.30 in 10.0 mi ESE 8.1 mph - N/A   Mostly Cloudy
4:53 AM 70.0 °F - 68.0 °F 93% 30.28 in 10.0 mi ESE 6.9 mph - N/A   Mostly Cloudy
5:06 AM 71.6 °F - 68.0 °F 88% 30.29 in 10.0 mi ESE 8.1 mph - N/A   Mostly Cloudy
5:46 AM 69.8 °F - 68.0 °F 94% 30.30 in 10.0 mi East 6.9 mph - N/A   Scattered Clouds
5:53 AM 70.0 °F - 68.0 °F 93% 30.30 in 10.0 mi East 5.8 mph - N/A   Mostly Cloudy
6:53 AM 69.1 °F - 66.9 °F 93% 30.31 in 10.0 mi East 6.9 mph - N/A   Mostly Cloudy
7:09 AM 69.8 °F - 66.2 °F 88% 30.31 in 10.0 mi East 5.8 mph - N/A   Scattered Clouds
7:53 AM 69.1 °F - 66.9 °F 93% 30.32 in 9.0 mi East 4.6 mph - N/A   Clear
8:53 AM 72.0 °F - 69.1 °F 91% 30.32 in 10.0 mi East 6.9 mph - N/A   Clear
9:07 AM 71.6 °F - 68.0 °F 88% 30.32 in 10.0 mi ESE 10.4 mph - N/A   Partly Cloudy
9:53 AM 75.0 °F - 66.9 °F 76% 30.31 in 10.0 mi ESE 6.9 mph 18.4 mph N/A   Clear
10:53 AM 78.1 °F - 64.0 °F 62% 30.28 in 10.0 mi SE 17.3 mph - N/A   Clear
12:53 PM 81.0 °F 81.7 °F 61.0 °F 50% 30.24 in 10.0 mi SE 15.0 mph - N/A   Clear
1:53 PM 82.9 °F 82.4 °F 57.0 °F 41% 30.23 in 10.0 mi ESE 13.8 mph 23.0 mph N/A   Scattered Clouds
2:53 PM 82.0 °F 82.0 °F 57.9 °F 44% 30.24 in 10.0 mi East 10.4 mph - N/A   Scattered Clouds
3:53 PM 84.0 °F 83.8 °F 59.0 °F 43% 30.24 in 10.0 mi East 9.2 mph - N/A   Mostly Cloudy
4:53 PM 81.0 °F 81.6 °F 60.1 °F 49% 30.24 in 10.0 mi ESE 8.1 mph - N/A   Clear
5:53 PM 77.0 °F - 61.0 °F 58% 30.25 in 10.0 mi East 4.6 mph - N/A   Partly Cloudy
6:53 PM 73.9 °F - 61.0 °F 64% 30.25 in 10.0 mi East 5.8 mph - N/A   Clear
7:53 PM 73.0 °F - 63.0 °F 71% 30.26 in 10.0 mi East 6.9 mph - N/A   Clear
8:53 PM 71.1 °F - 64.0 °F 78% 30.28 in 10.0 mi East 5.8 mph - N/A   Clear
9:53 PM 72.0 °F - 63.0 °F 73% 30.29 in 10.0 mi ESE 10.4 mph - N/A   Overcast
10:53 PM 71.1 °F - 62.1 °F 73% 30.29 in 10.0 mi ESE 9.2 mph - N/A   Mostly Cloudy
11:53 PM 69.1 °F - 62.1 °F 78% 30.28 in 10.0 mi SE 9.2 mph - N/A   Partly Cloudy